Location: Unspecified
(0.0000°N, 0.0000°E)
Time: 12:37:38
(UTC+02:00)

Tiros 1 despin weight - Visible Passes

Search period start: 30 March 2017 00:00
Search period end: 09 April 2017 00:00
Orbit: 596 x 644 km, 48.2° (Epoch: 28 March)

Date Brightness Start Highest point End Pass type
(mag) Time Alt. Az. Time Alt. Az. Time Alt. Az.
03 Apr ? 21:26:33 10° S 21:27:02 12° SSE 21:27:02 12° SSE visible
04 Apr ? 21:42:15 10° SSW 21:44:32 26° S 21:44:32 26° S visible
05 Apr ? 21:59:07 10° SW 22:02:18 40° WSW 22:02:18 40° WSW visible
06 Apr ? 20:35:18 10° S 20:39:18 27° SE 20:43:07 11° ENE visible
06 Apr ? 22:17:03 10° WSW 22:20:20 22° WNW 22:20:20 22° WNW visible
07 Apr ? 20:51:37 10° SW 20:56:18 75° SE 21:00:56 10° NE visible
08 Apr ? 21:08:54 10° WSW 21:13:17 39° NW 21:17:35 10° NNE visible
